Weather Roundup
Issued by NWS Chicago, IL

Home | Current Version | Previous Version | Graphics & Text | Print | Product List | Glossary On
Versions: 1 2 3 4 5 6 7 8 9 10 11 12 13 14 15 16 17 18 19 20 21 22 23 24 25 26 27 28 29 30 31 32 33 34 35 36 37 38 39 40 41 42 43 44 45 46 47 48 49 50
000
NZUS59 KLOT 291704
HRRLOT

CHICAGO AREA WEATHER ROUNDUP
NATIONAL WEATHER SERVICE CHICAGO/ROMEOVILLE IL
1200 PM CDT FRI JUL 29 2016

NOTE: "FAIR" INDICATES FEW OR NO CLOUDS BELOW 12,000 FEET WITH NO
SIGNIFICANT WEATHER AND/OR OBSTRUCTIONS TO VISIBILITY.

* THESE STATIONS ARE NOT UNDER NWS QUALITY CONTROL. THEY ALSO MAY NOT
  REPORT WEATHER SUCH AS PRECIPITATION OR FOG.

ILZ005-006-012>014-019>023-291800-
NORTHEAST ILLINOIS

CITY           SKY/WX    TMP DP  RH WIND       PRES   REMARKS
OHARE          PTSUNNY   80  69  69 NE10      29.93F HX  83
MIDWAY         PTSUNNY   80  68  66 E8        29.92F HX  83
AURORA         PTSUNNY   80  70  71 NW3       29.93F HX  83
LANSING*       CLOUDY    81  69  67 NE3       29.92F HX  84
WAUKEGAN       CLOUDY    74  68  81 NE7       29.95F
DUPAGE AIRPORT CLOUDY    79  69  71 N8        29.93F HX  81
WHEELING       CLOUDY    77  69  76 NE9       29.95F
KANKAKEE*      PTSUNNY   82  72  72 S3        29.93F HX  86
MORRIS*        CLOUDY    76  71  83 CALM      29.92F
NORTHERLY ISL    N/A     78  70  76 NE8         N/A  HX  80
$$

WIZ051-052-058>065-066-070>072-291800-
SOUTHEAST WISCONSIN

CITY           SKY/WX    TMP DP  RH WIND       PRES   REMARKS
MILWAUKEE      CLOUDY    74  66  76 NE13      29.99S
KENOSHA*       CLOUDY    73  66  78 E12       29.98S
RACINE*        PTSUNNY   74  65  73 E12       29.99F
BURLINGTON     CLOUDY    73  65  77 NE7       29.97F
WAUKESHA       CLOUDY    70  64  83 NE8       30.01S
$$

INZ001>003-010>013-019-020-291800-
NORTHWEST INDIANA

CITY           SKY/WX    TMP DP  RH WIND       PRES   REMARKS
GARY*          PTSUNNY   81  73  78 N8        29.93F HX  85
MICHIGAN CITY* NOT AVBL
RENSSELAER*    NOT AVBL
VALPARAISO     CLOUDY    84  69  60 CALM      29.93F HX  88
$$

LMZ740>746-291800-
SOUTHERN LAKE MICHIGAN

STATION/POSITION TIME  SKY/WX   TEMP WIND        PRES    VSBY
                                AIR  DIR/SP/G
                 (UTC)          (F)  (DEG/KT/KT) (MB)    (MI)
HARRISON CRIB    1600            75   60/  6/  7   N/A
BURNHAM HARBOR   1700            77   40/  6/  9   N/A
CALUMET HARBOR   1600            74   40/  5/  7 1013.3R
BURNS HARBOR     1600            74   10/  4/  8 1014.2S
MICHIGAN CITY    1600            75  350/  7/  7   N/A
$$

ABBREVIATIONS USED IN REMARKS
   TC - TEMPERATURE IN CELSIUS
  WCI - WIND CHILL INDEX
   HX - HEAT INDEX
  VSB - VISIBILITY
$$




USA.gov is the U.S. government's official web portal to all federal, state and local government web resources and services.